#timestamp,LO_Frequency,Hit,StdDev 
1628492415.8,286047000.6,N
1628492435.6,286047000.1,N
1628492455.5,286047002.7,Y
1628492475.3,286047000.0,P
1628492495.2,286046998.1,P
1628492515.9,286046998.2,N
1628492535.7,286047000.8,N
1628492555.6,286046998.6,N
1628492575.4,286046998.1,N
1628492595.2,286047002.8,N
1628492615.1,286047002.7,N
1628492616.0,286047002.7,N
1628492635.8,286047002.4,N
1628492655.7,286047000.2,N
1628492675.5,286047000.8,N
1628492695.3,286047000.4,N
1628492715.2,286047000.6,N
1628492735.0,286046999.8,N
1628492735.9,286046999.8,N
1628492755.7,286047000.2,N
1628492775.6,286047000.8,N
1628492795.4,286047000.4,N
1628492815.3,286047000.9,N
1628492835.1,286047000.7,N
1628492836.0,286047000.7,N
1628492855.8,286047001.1,N
1628492875.7,286047000.7,N
1628492895.5,286046998.5,N
1628492915.3,286047000.4,N
1628492935.2,286046999.8,N
1628492955.0,286047001.7,N
1628492955.9,286047001.7,N
1628492975.8,286046999.8,N
1628492995.6,286047001.0,N
1628493015.4,286047001.1,N
1628493035.3,286046999.9,N
1628493055.1,286047001.1,N
1628493075.9,286047000.7,N
1628493095.7,286047002.8,N
1628493115.5,286047000.0,N
1628493135.4,286046998.2,N
1628493155.2,286047001.0,N
1628493175.0,286047000.5,N
1628493175.9,286047000.5,N
1628493195.8,286047000.0,N
1628493215.6,286047000.5,N
1628493235.5,286047001.0,N
1628493255.3,286047000.6,N
1628493275.1,286047000.1,N
1628493295.9,286047002.3,N
1628493315.7,286047000.0,N
1628493335.6,286047000.9,N
1628493355.4,286046999.8,N
1628493375.2,286047002.3,N
1628493395.1,286046999.7,N
1628493396.0,286046999.7,N
1628493415.8,286047000.5,N
1628493435.6,286047002.8,N
1628493455.5,286047000.5,N
1628493475.3,286047000.9,N
1628493495.2,286047000.9,N
1628493515.9,286047000.6,N
1628493535.7,286046999.9,N
1628493555.6,286047001.0,N
1628493575.4,286047000.8,N
1628493595.3,286047001.1,N
1628493615.1,286047001.0,N
1628493616.0,286047001.0,N
1628493635.8,286046998.1,N
1628493655.7,286046998.6,N
1628493675.5,286046998.4,N
1628493695.4,286046998.8,N
1628493715.2,286046999.3,N
1628493735.0,286046998.7,N
1628493735.9,286046998.7,N
1628493755.8,286047001.2,N
1628493775.6,286047000.5,N
1628493795.4,286047000.0,N
1628493815.3,286047000.2,N
1628493835.1,286047000.0,N
1628493855.9,286047000.4,N
1628493875.7,286047000.9,N
1628493895.5,286046998.9,N
1628493915.4,286046999.4,N
1628493935.2,286046999.5,N
1628493955.1,286046998.8,N
1628493956.0,286046998.8,N
1628493975.8,286046998.2,N
1628493995.6,286047001.1,N
1628494015.5,286047001.1,N
1628494035.3,286047002.2,N
1628494055.2,286047002.6,N
1628494075.9,286047002.4,N
1628494095.7,286047004.2,Y
1628494115.6,286047003.7,P
1628494135.4,286047003.8,N
1628494155.2,286047001.8,N
1628494175.1,286047002.3,N
1628494176.0,286047002.3,N
1628494195.8,286047000.6,N
1628494215.7,286046998.6,N
1628494235.5,286046998.4,N
1628494255.3,286047000.4,N
1628494275.2,286047000.9,N
1628494295.0,286046999.7,N
1628494295.9,286046999.7,N
1628494315.8,286047002.1,N
1628494335.6,286047000.0,N
1628494355.4,286046999.7,N
1628494375.3,286047001.8,N
1628494395.1,286047003.9,N
1628494396.0,286047003.9,N
1628494415.8,286047003.1,N
1628494435.7,286047003.6,N
1628494455.5,286047003.4,N
1628494475.3,286047003.5,N
1628494495.2,286047003.0,N
1628494515.0,286047003.1,N
1628494515.9,286047003.1,N
1628494535.8,286047005.7,Y
1628494555.6,286047001.4,P
1628494575.4,286047004.1,P
1628494595.3,286047003.7,P
1628494615.1,286047004.1,Y
1628494635.9,286047000.5,P
1628494655.7,286047000.3,N
1628494675.5,286046998.5,N
1628494695.4,286046998.8,N
1628494715.2,286046999.5,N
1628494735.0,286046997.3,N
1628494735.9,286046997.3,N
1628494755.8,286046997.7,N
1628494775.6,286046996.4,N
1628494795.5,286046993.8,Y
1628494815.3,286046995.1,P
1628494835.1,286046996.1,N
1628494855.9,286046996.1,N
1628494875.7,286046993.3,Y
1628494895.5,286046999.2,P
1628494915.4,286046997.1,N
1628494935.2,286046997.7,N
1628494955.1,286046995.3,Y
1628494956.0,286046995.3,P
1628494975.8,286046997.4,N
1628494995.6,286046999.6,N
1628495015.5,286046997.7,N
1628495035.3,286046996.8,N
1628495055.1,286046999.0,N
1628495075.9,286046997.9,N
1628495095.7,286046997.6,N
1628495115.6,286046997.3,N
1628495135.4,286046996.8,N
1628495155.2,286046999.6,N
1628495175.1,286046999.2,N
1628495176.0,286046999.2,N
1628495195.8,286046999.4,N
1628495215.6,286046999.2,N
1628495235.5,286046997.3,N
1628495255.3,286046997.5,N
1628495275.2,286046997.3,N
1628495295.9,286046995.1,Y
1628495315.7,286046998.1,P
1628495335.6,286047001.0,P
1628495355.4,286047000.8,N
1628495375.2,286046998.8,N
1628495395.1,286046999.1,N
1628495396.0,286046999.1,N
1628495415.8,286046997.1,N
1628495435.7,286046999.1,N
1628495455.5,286046998.3,N
1628495475.3,286046999.3,N
1628495495.2,286047001.2,N
1628495515.0,286047000.8,N
1628495515.9,286047000.8,N
1628495535.7,286046998.6,N
1628495555.6,286046999.5,N
1628495575.4,286046999.0,N
1628495595.3,286046996.5,Y
1628495615.1,286046998.1,P
1628495635.8,286046998.8,N
1628495655.7,286046999.1,N
1628495675.5,286046998.8,N
1628495695.4,286046998.2,Y
1628495715.2,286047002.1,P
1628495735.0,286047002.4,N
1628495735.9,286047002.4,N
1628495755.8,286046999.8,N
1628495775.6,286047000.2,N
1628495795.4,286046999.7,N
1628495815.3,286047002.5,N
1628495835.1,286047002.6,N
1628495855.9,286047001.0,N
1628495875.7,286047002.6,N
1628495895.5,286047001.9,N
1628495915.4,286047000.4,N
1628495935.2,286047002.1,N
1628495955.0,286047002.1,N
1628495956.0,286047002.1,N
1628495975.8,286047002.4,N
1628495995.6,286047002.2,N
